User: anonymous   Login
Location: Unspecified
(0.0000°N, 0.0000°E)
Time: 10:58:56
(UTC+00:00)
Language:

Meteosat 1 - Orbit

View from above orbital plane
View from above orbital plane
View from above satellite
View from above satellite

Ground track
Ground track

The orbit data is extracted from the following two-line orbital elements,

1 10489U 77108A   19081.74038155 +.00000098 +00000-0 +00000-0 0  9994
2 10489 011.2729 312.9427 0016247 020.6953 158.4259 01.00179024110706
Epoch (UTC): 22 March 2019 17:46:08
Eccentricity: 0.0016247
inclination: 11.2729°
perigee height: 35743 km
apogee height: 35881 km
right ascension of ascending node: 312.9427°
argument of perigee: 20.6953°
revolutions per day: 1.00179024
mean anomaly at epoch: 158.4259°
orbit number at epoch: 11070

The dashed part of the orbit path shows where the satellite is in the earth's shadow,  

DLR